Regional Weather Roundup
Issued by NWS

Home | Current Version | Previous Version | Text Only | Print | Product List | Glossary Off
Versions: 1 2 3 4 5 6 7 8 9 10 11 12 13 14 15 16 17 18 19 20 21 22 23 24 25 26 27 28 29 30 31 32 33 34 35 36 37 38 39 40 41 42 43 44 45 46 47 48 49 50

000
ASUS43 KDTX 231610
RWRMI
MICHIGAN HOURLY REGIONAL WEATHER ROUNDUP
NATIONAL WEATHER SERVICE DETROIT/PONTIAC MI
1100 AM EST FRI FEB 23 2018

NOTE: "FAIR" INDICATES FEW OR NO CLOUDS BELOW 12,000 FEET WITH NO
SIGNIFICANT WEATHER AND/OR OBSTRUCTION TO VISIBILITY.

MIZ047>049-052>055-059>063-066>070-074>076-081>083-231700-
SOUTHEAST LOWER MICHIGAN

CITY           SKY/WX    TMP DP  RH WIND       PRES   REMARKS
ADRIAN         CLOUDY    38  38 100 CALM      30.11F
ALMA           LGT RAIN  36  36 100 SW5       30.08F WCI  32
ANN ARBOR      LGT RAIN  39  38  96 S3        30.10S FOG
BAD AXE        MIX PCPN  35  35 100 S14       30.07F WCI  26
CARO           RAIN      38  38  99 S7        30.05F WCI  33
DETROIT CITY   LGT RAIN  41  40  96 S3        30.10F FOG
DETROIT        LGT RAIN  39  38  96 S6        30.12S FOG     WCI  35
FLINT          CLOUDY    40  39  97 S8        30.06F FOG     WCI  34
GROSSE ILE     RAIN      37  36  97 S6        30.09F VSB 3/4 WCI  32
HILLSDALE      CLOUDY    39  37  93 S7        30.08F FOG     WCI  34
HOWELL         CLOUDY    40  40 100 S6        30.07F

CITY           SKY/WX    TMP DP  RH WIND       PRES   REMARKS
JACKSON        LGT RAIN  41  40  96 S7        30.09F
LAMBERTVILLE   HVY RAIN  41  40  97 W5        30.12R VSB 1
LANSING        FOG       40  40 100 S12       30.08F VSB 1   WCI  33
LAPEER         DRIZZLE   39  38  98 S7        30.08F WCI  34
MASON          CLOUDY    41  37  87 S3        30.08S FOG
MONROE         LGT SNOW  37  35  93 CALM      30.10S VSB 1
MT. CLEMENS    LGT RAIN  37  37 100 S3        30.09F FOG
PONTIAC        LGT RAIN  38  38 100 S5        30.08F FOG     WCI  34
PORT HOPE        N/A     36  34  92 S8G21     30.04F WCI  30
PORT HURON     DRIZZLE   37  36  93 S5        30.11S WCI  34
TRI CITIES     MIX PCPN  37  35  92 SW6       30.08S VSB 3/4 WCI  32
MIDLAND        RAIN      36  36  99 SW3       30.07F
TROY           DRIZZLE   40  39  97 CALM      30.12F
SAGINAW HB     LGT RAIN  36  36 100 SW7       30.06F WCI  30
$$
MIZ043>046-050>051-056>058-064>065-071>073-077>080-231700-
SOUTHWEST LOWER MICHIGAN

CITY           SKY/WX    TMP DP  RH WIND       PRES   REMARKS
BATTLE CREEK   CLOUDY    41  40  96 SW9       30.09S FOG
BENTON HARBOR  CLOUDY    44  42  93 SW7       30.10R
BIG RAPIDS     MIX PCPN  34  32  93 CALM      30.05F
COLDWATER      CLOUDY    42  42 100 S5        30.09F
FREMONT        LGT RAIN  37  35  93 SW3       30.07S
HOLLAND        CLOUDY    45  42  89 SW15G23   30.09R
GRAND RAPIDS   CLOUDY    42  41  96 SW9       30.07F FOG
IONIA          CLOUDY    40  40 100 S6        30.07F FOG
KALAMAZOO      CLOUDY    42  39  89 S10       30.09F
LUDINGTON      CLOUDY    38  38 100 SW14      30.05F FOG     WCI  30
MARSHALL       CLOUDY    41  40  98 S8        30.09S FOG
MOUNT PLEASANT LGT RAIN  36  35  96 S5        30.06F WCI  32
MUSKEGON       CLOUDY    39  37  92 SW13      30.08S FOG     WCI  31
SOUTH HAVEN    CLOUDY    45  43  94 SW9       30.09F
$$
MIZ016>042-231700-
NORTHERN LOWER MICHIGAN

CITY           SKY/WX    TMP DP  RH WIND       PRES   REMARKS
ALPENA         CLOUDY    35  34  96 S7        30.05S FOG     WCI  29
BEAVER ISLAND  MIX PCPN  33  33  96 S5        30.00F WCI  29
BELLAIRE       MIX PCPN  35  35 100 S5        30.03F WCI  31
CADILLAC       RAIN      33  33  99 S10       30.03S WCI  25
CHARLEVOIX     CLOUDY    36  36 100 S9        30.03F WCI  29
FRANKFORT      CLOUDY    39  38  99 S7G17     30.03F FOG     WCI  34
GAYLORD        CLOUDY    33  33 100 S10       30.00F FOG     WCI  25
GRAYLING       MIX PCPN  33  33  98 S6        30.02F WCI  28
HARBOR SPRINGS LGT RAIN  34  34  99 SW5       30.01F WCI  30
HOUGHTON LAKE  CLOUDY    34  32  92 S7        30.05S WCI  28
MANISTEE       MIX PCPN  37  36  96 S7        30.05S FOG     WCI  32
OSCODA         LGT SNOW  34  34  99 SW12      30.06S WCI  26
PELLSTON       CLOUDY    34  34 100 VRB3      30.01F
ROGERS CITY    LGT RAIN  34  33  95 S7        30.04F WCI  28
TRAVERSE CITY  LGT RAIN  39  36  89 VRB6      30.02F FOG     WCI  35
$$
MIZ007>008-015-231700-
EASTERN UPPER MICHIGAN

CITY           SKY/WX    TMP DP  RH WIND       PRES   REMARKS
KINROSS        LGT SNOW  34  30  86 S8        29.99F FOG     WCI  27
MACKINAC ISLAN LGT SNOW  32  32 100 S6        30.00F WCI  26
NEWBERRY       CLOUDY    32  31  97 S12       29.97F FOG     WCI  23
S. S. MARIE    LGT SNOW  31  29  92 SE3       30.00F VSB 1
MUNISING         N/A     32  30  92 S9        29.95F WCI  24
$$
MIZ004>006-011>014-085-231700-
CENTRAL UPPER MICHIGAN

CITY           SKY/WX    TMP DP  RH WIND       PRES   REMARKS
MANISTIQUE     CLOUDY    31  30  94 SE5       29.98F FOG     WCI  26
ESCANABA         N/A     34  33  96 S7        29.98F WCI  28
MENOMINEE      CLOUDY    34  33  96 SW8       30.01S FOG     WCI  27
SAWYER-GWINN   CLOUDY    28  27  93 SW9       29.94F WCI  20
$$
MIZ001>003-009>011-084-231700-
WESTERN UPPER MICHIGAN

CITY           SKY/WX    TMP DP  RH WIND       PRES   REMARKS
IRON MOUNTAIN  CLOUDY    33  30  88 SW7       29.95F WCI  27
HOUGHTON       CLOUDY    27  23  85 CALM      29.93F
COPPER HARBOR    N/A     29  25  85 SW10G17   29.95F WCI  20
IRONWOOD       CLOUDY    28  25  86 W12       29.98R WCI  18
$$

ABBREVIATIONS USED IN REMARKS
   TC - TEMPERATURE IN CELSIUS
  WCI - WIND CHILL INDEX
   HX - HEAT INDEX
  VSB - VISIBILITY




USA.gov is the U.S. government's official web portal to all federal, state and local government web resources and services.